sat.trackr.live / text

‹ back to catalog

STARLINK-3392

NORAD 51123 · 2022-005V

PAYLOAD ACTIVE UNKNOWN

§ Identity

Operator
Country
US
Launch date
2022-01-19
Launch site
AFETR
Launch vehicle
Mass (kg)
RCS (m²)

Purposes: comms

External: N2YO · Heavens-Above · Gunter

§ Orbital elements

Epoch: 2026-05-25T03:48:13.660416Z

Period
95.44 min
Inclination
53.2123°
Eccentricity
0.0001426
Mean motion
15.08837982 rev/d
Perigee alt
538.8 km
Apogee alt
540.7 km
Semi-major
6,917.9 km
B*
7.5939e-6
RAAN
305.8372°
Arg perigee
83.6358°
Mean anomaly
276.4796°
Rev number
24,042

§ Raw data

STARLINK-33921 51123U 22005V   26145.15849144 -.00000167  00000+0  75939-5 0  99972 51123  53.2123 305.8372 0001426  83.6358 276.4796 15.08837982240428

JSON: /api/v1/satellites/51123 · /tle

For live sub-satellite position, see the globe view (requires WebGL).

§ Visibility from observer

Set your observer location to see the next 7 days of passes ≥ 10°. The values pass through the URL so the page stays shareable.

No JS? Fill the form by hand. The geolocation button needs JavaScript.